Regional Weather Roundup
Issued by NWS Sterling, VA

Home | Current Version | Previous Version | Text Only | Print | Product List | Glossary On
Versions: 1 2 3 4 5 6 7 8 9 10 11 12 13 14 15 16 17 18 19 20 21 22 23 24 25 26 27 28 29 30 31 32 33 34 35 36 37 38 39 40 41 42 43 44 45 46 47 48 49 50
000
ASUS41 KLWX 071210
RWRLWX

REGIONAL WEATHER ROUNDUP
NATIONAL WEATHER SERVICE BALTIMORE MD/WASHINGTON DC
800 AM EDT TUE JUL 07 2015

Note: "FAIR" indicates few or no clouds below 12,000 feet
with no significant weather and/or obstructions to visibility.
 TC=TEMPERATURE CELSIUS

 * =Non NWS site. Station does not report precipitation (e.g. rain,
    snow, etc.), thunder, or fog.

DCZ001-MDZ009-015-VAZ040>042-051-053>054-071300-
WASHINGTON METRO

CITY           SKY/WX    TMP DP  RH WIND       PRES   REMARKS
WASHINGTON NAT PTSUNNY   77  71  82 SW7       30.07R
DULLES         FOG       71  70  96 CALM      30.07R VSB 1/2
ANDREWS AFB    PTSUNNY   73  73 100 W10       30.06R
FT BELVOIR     CLOUDY    73  71  93 W7        30.07R
COLLEGE PARK*  PTSUNNY   77  73  88 W5        30.06R
LEESBURG*      CLOUDY    72  72 100 CALM      30.08S FOG
MANASSAS*      CLOUDY    72  72 100 W3        30.08R
GAITHERSBURG*  CLOUDY    72  70  94 W5        30.11R

$$

MDZ006>007-011-014-071300-
BALTIMORE METRO

CITY           SKY/WX    TMP DP  RH WIND       PRES   REMARKS
BWI AIRPORT    PTSUNNY   75  73  94 W7        30.05R
MD SCIENCE CTR   N/A     77  71  82 MISG      30.07R
MARTIN STATE   PTSUNNY   75  73  94 CALM      30.06R
ANNAPOLIS      PTSUNNY   75  71  87 W6        30.05R
FORT MEADE*    MOSUNNY   72  70  94 W5        30.08R

$$

MDZ012-015-019>023-071300-
MARYLAND EASTERN SHORE

CITY           SKY/WX    TMP DP  RH WIND       PRES   REMARKS
OCEAN CITY     SUNNY     80  74  81 SW10      30.06S
SALISBURY      SUNNY     77  75  93 S9        30.06R
BAY BRIDGE AP*   N/A     75  72  88 SW5       30.06R
CAMBRIDGE*     SUNNY     77  73  88 CALM      30.05R
EASTON*        CLOUDY    77  77 100 SW6       30.09R

$$

MDZ017>025-071300-
SOUTHERN MARYLAND

CITY           SKY/WX    TMP DP  RH WIND       PRES   REMARKS
PATUXENT RIVER MOSUNNY   76  72  87 SW10      30.05R
ST INIGOES     NOT AVBL
LEONARDTOWN*   SUNNY     73  70  88 SW8       30.08R

$$

MDZ003>005-071300-
NORTH CENTRAL MARYLAND

CITY           SKY/WX    TMP DP  RH WIND       PRES   REMARKS
FREDERICK*     CLOUDY    75  73  94 SW5       30.09R
HAGERSTOWN APT CLOUDY    73  69  87 S5        30.07S
WESTMINSTER*   CLOUDY    72  70  94 SW7       30.08R

$$

MDZ501>502-071300-
WESTERN MARYLAND

CITY           SKY/WX    TMP DP  RH WIND       PRES   REMARKS
OAKLAND*       PTSUNNY   64 N/A N/A SW7       30.16S HAZE
CUMBERLAND*    PTSUNNY   70  70 100 S3        30.11S

$$

VAZ025>031-071300-
SHENANDOAH VALLEY

CITY           SKY/WX    TMP DP  RH WIND       PRES   REMARKS
WINCHESTER*    MOSUNNY   73  70  88 SW3       30.08S
FRONT ROYAL*   FAIR      72  68  88 S5        30.08S
LURAY*         FAIR      73  72  94 SW5       30.10F
NEW MARKET*    FAIR      70  67  88 W6        30.09F
STAUNTON*      SUNNY     72  68  86 S5        30.14S
WAYNESBORO*    FAIR      69  66  90 CALM      30.14S

$$

WVZ021-048>050-054>055-071300-
EASTERN WEST VIRGINIA PANHANDLE

CITY           SKY/WX    TMP DP  RH WIND       PRES   REMARKS
MARTINSBURG    CLOUDY    71  68  90 SE5       30.07S
PETERSBURG*    MOSUNNY   68  66  94 CALM      30.11R FOG

$$

VAZ036>039-050-071300-
CENTRAL FOOTHILLS

CITY           SKY/WX    TMP DP  RH WIND       PRES   REMARKS
CHARLOTTESVILL SUNNY     73  67  81 SW3       30.09R
CULPEPER*      MOSUNNY   72  70  95 CALM      30.09S
ORANGE*        SUNNY     73  72  94 CALM      30.10R
GORDONSVILLE*  FAIR      72  70  94 CALM      30.08S
WARRENTON*     PTSUNNY   72  72 100 CALM      30.08R

$$

VAZ055>057-071300-
NORTH AND CENTRAL PIEDMONT

CITY           SKY/WX    TMP DP  RH WIND       PRES   REMARKS
FREDERICKSBRG* SUNNY     74  74  99 CALM      30.07R
STAFFORD*      CLOUDY    70  69  96 CALM      30.12R FOG

$$

NCZ024-NYZ072-PAZ021-071-VAZ022-071-071300-
OTHER REGIONAL OBSERVATIONS

CITY           SKY/WX    TMP DP  RH WIND       PRES   REMARKS
NEW YORK CITY  CLOUDY    78  71  79 CALM      30.07S
PHILADELPHIA   MOSUNNY   78  72  81 SW8       30.05R
PITTSBURGH     MOSUNNY   70  66  87 S6        30.04S
ROANOKE        SUNNY     69  65  86 W6        30.17R
RICHMOND       SUNNY     74  70  87 SW7       30.09R
RALEIGH        MOSUNNY   75  71  87 SW6       30.13R

$$

ANZ530>537-071300-
MARINE OBSERVATIONS

STATION/POSITION TIME  TEMP    WIND        PRES
                       AIR SEA DIR/SP/G
                 (UTC) (F)     (DEG/KT/KT) (MB)
THOMAS PT LIGHT  1200   74     240/  7     1018.4R
BALT KEY BRIDGE  1100   74      CALM  /  1 1016.8R
COVE POINT       1100   74     240/ 10/ 12 1017.8R
LEWISETTA        1100   75 79  240/  5/  7 1017.5R
SOLOMONS ISLAND  1100      80                N/A
PINEY POINT      1100          230/ 11/ 12   N/A

$$




USA.gov is the U.S. government's official web portal to all federal, state and local government web resources and services.